Regional Weather Roundup
Issued by NWS Upton, NY

Current Version | Previous Version | Graphics & Text | Print | Product List | Glossary Off
Versions: 1 2 3 4 5 6 7 8 9 10 11 12 13 14 15 16 17 18 19 20 21 22 23 24 25 26 27 28 29 30 31 32 33 34 35 36 37 38 39 40 41 42 43 44 45 46 47 48 49 50

000
ASUS41 KOKX 240004
RWROKX

REGIONAL WEATHER ROUNDUP
NATIONAL WEATHER SERVICE NEW YORK NY
800 PM EDT MON MAY 23 2016

NOTE: "FAIR" INDICATES FEW OR NO CLOUDS BELOW 12,000 FEET WITH NO
SIGNIFICANT WEATHER AND/OR OBSTRUCTIONS TO VISIBILITY.

NYZ071-072-176-178-NJZ106-104-240100-
NEW YORK CITY METRO AREA


CITY           SKY/WX    TMP DP  RH WIND       PRES   REMARKS
CENTRAL PARK   CLOUDY    63  47  55 CALM      29.91R
LAGUARDIA APRT CLOUDY    66  49  54 S10       29.88R
KENNEDY INTL   MOCLDY    62  48  60 S7        29.90R
NEWARK/LIBERTY CLOUDY    66  46  48 SE12G18   29.87S
BRNX BOT. GARD   N/A     64  45  48 S3        29.90S
TETERBORO      CLOUDY    64  49  57 S9G20     29.86R
$$

NYZ177-179-078>081-240100-
LONG ISLAND NEW YORK

CITY           SKY/WX    TMP DP  RH WIND       PRES   REMARKS
FARMINGDALE    CLOUDY    64  45  49 S6        29.89R
ISLIP          CLOUDY    65  44  46 SW5       29.89R
SHIRLEY        CLOUDY    65  46  50 CALM      29.89R
RIVERHEAD        N/A     66  48  52 CALM      29.87F
WESTHAMPTON    CLOUDY    58  47  66 CALM      29.90R
EAST HAMPTON   CLOUDY    64  45  49 CALM      29.88R
MONTAUK POINT    N/A     61  50  67 E6        29.91R
$$

NYZ052-065-067-240100-
HUDSON VALLEY

CITY           SKY/WX    TMP DP  RH WIND       PRES   REMARKS
WHITE PLAINS   MOCLDY    64  46  52 S9        29.88R
NEWBURGH       NOT AVBL
MONTGOMERY     CLOUDY    69  56  62 CALM      29.83R
POUGHKEEPSIE   CLOUDY    72  52  49 SE10      29.82R
ALBANY         PTCLDY    74  37  26 N5        29.84S
$$

NJZ001-105-106-008-010-013-015-019>022-104-240100-
NEW JERSEY

CITY           SKY/WX    TMP DP  RH WIND       PRES   REMARKS
NEWARK/LIBERTY CLOUDY    66  46  48 SE12G18   29.87S
TETERBORO      CLOUDY    64  49  57 S9G20     29.86R
CALDWELL       CLOUDY    61  58  90 CALM      29.88R
MORRISTOWN     MOCLDY    61  59  94 SE8       29.88S
SOMERVILLE     CLOUDY    64  58  80 CALM      29.86R
SUSSEX         MOCLDY    69  51  52 CALM      29.86R
ANDOVER          N/A     68  51  54 CALM      29.87R
TRENTON        CLOUDY    64  56  75 W3        29.89R
MILLVILLE      CLOUDY    61  52  72 W5        29.91R
ATLANTIC CITY  CLOUDY    63  47  55 S3        29.91R
WRIGHTSTOWN    CLOUDY    65  51  61 S7        29.88R
TOMS RIVER     CLOUDY    63  46  55 S3        29.90S
BELMAR         CLOUDY    63  46  54 SE5       29.91R
$$

PAZ047>061-062-071-240100-
EASTERN PENNSYLVANIA

CITY           SKY/WX    TMP DP  RH WIND       PRES   REMARKS
PHILADELPHIA   MOCLDY    62  56  80 NW7       29.90R
ALLENTOWN      PTCLDY    66  56  70 S3        29.87S
SCRANTON       CLOUDY    67  58  72 SE3       29.87R
$$

CTZ002-004>006-009-010-012-RIZ004-006-007-MAZ004-011-015-240100-
SOUTHERN NEW ENGLAND
 IN CT

CITY           SKY/WX    TMP DP  RH WIND       PRES   REMARKS
BRADLEY INTL   CLOUDY    72  49  44 S10       29.85R
HARTFORD       CLOUDY    72  50  45 S8        29.86R
DANBURY        PTCLDY    66  50  56 VRB5      29.88R
WTRBRY/OXFORD  CLOUDY    64  46  52 S7        29.90R
BRIDGEPORT     CLOUDY    66  50  56 SW7       29.88R
MERIDEN        CLOUDY    67  46  47 SW6       29.87R
NEW HAVEN      CLOUDY    64  50  60 CALM      29.88R
CHESTER        MOCLDY    66  48  52 S3        29.89R
GROTON         CLOUDY    63  51  65 S3        29.87S
WILLIMANTIC    CLOUDY    72  46  39 S7        29.87R

 IN RI

CITY           SKY/WX    TMP DP  RH WIND       PRES   REMARKS
PROVIDENCE     CLOUDY    68  45  43 E5        29.88S
BLOCK ISLAND   CLOUDY    57  52  83 E6        29.89F
WESTERLY       MOCLDY    65  44  46 SE6       29.89R

 IN MA

CITY           SKY/WX    TMP DP  RH WIND       PRES   REMARKS
BOSTON         CLOUDY    62  51  67 CALM      29.87F
WORCESTER      CLOUDY    66  38  35 E7        29.90R
WESTFIELD      CLOUDY    73  45  36 VRB5      29.84R
PROVINCETOWN   CLOUDY    58  52  80 VRB3      29.90R
NANTUCKET      PTCLDY    56  51  84 NE9       29.87F
$$

ANZ330-335-338-340-345-350-353-355-240100-
COASTAL MARINE OBSERVATIONS


STATION/POSITION TIME  SKY/WX   TEMP    WIND        PRES    VSBY  WAVE
                                AIR SEA DIR/SP/G                  HT/PER
                 (UTC)          (F)     (DEG/KT/KT) (MB)    (MI)  (FT/S)
NY HARB ENTRANCE 2250            60 58  210/  4/  4 1011.4          3/ 8
20S FIRE ISLAND  2250            59 59  270/  4/  4 1011.1          4/ 8
GREAT SOUTH BAY  2300            63 65  250/  6/  8   N/A
23 SSW MONTAUK P 2250            62 59   50/  2/  4 1011.0          3/ 8
15 E BARNEGAT LI 2322               57                N/A           4/ 7
HUDSON CANYON    2250            54 52              1011.5          4/10
KINGS POINT      2300               59              1011.2
EXECUTION ROCKS  NOT AVBL
CENTRAL LI SOUND 2300            62     170/  6/  6   N/A           0
EASTERN LI SOUND 2300            61 53  100/  2/  4   N/A
ROBBINS REEF     2300                               1010.9
$$


>>>>>>>>>>>>>>>>>>>>>>>>>>>> KEY <<<<<<<<<<<<<<<<<<<<<<<<<<<
>                                                          <
>     SKY/WX - SKY CONDITION/PRESENT WEATHER               <
>     TMP    - TEMPERATURE IN FAHRENHEIT                   <
>     DP     - DEWPOINT IN FAHRENHEIT                      <
>     RH     - RELATIVE HUMIDITY IN PERCENT                <
>     WIND   - DIRECTION AND SPEED IN MPH                  <
>     PRES   - MEAN SEA LEVEL PRESSURE IN INCHES OF HG     <
>     WCI    - WIND CHILL INDEX                            <
>     VSB    - VISIBILITY IN MILES                         <
>     HX     - HEAT INDEX                                  <
>     TC     - TEMPERATURE IN CELSIUS                      <
>     VRB    - VARIABLE WIND DIRECTION                     <
>                                                          <
>>>>>>>>>>>>>>>>>>>>>>>>>>>> KEY <<<<<<<<<<<<<<<<<<<<<<<<<<<





USA.gov is the U.S. government's official web portal to all federal, state and local government web resources and services.